TimeCDT,TemperatureF,Dew PointF,Humidity,Sea Level PressureIn,VisibilityMPH,Wind Direction,Wind SpeedMPH,Gust SpeedMPH,PrecipitationIn,Events,Conditions,WindDirDegrees,DateUTC
12:55 AM,40.5,28.0,61,30.18,10.0,SW,10.4,-,N/A,,Clear,220,2012-10-08 05:55:00
1:55 AM,40.1,28.6,63,30.19,10.0,SW,6.9,-,N/A,,Clear,230,2012-10-08 06:55:00
2:55 AM,39.2,28.9,67,30.18,10.0,SW,6.9,-,N/A,,Clear,230,2012-10-08 07:55:00
3:55 AM,36.7,29.1,74,30.16,10.0,SSW,6.9,-,N/A,,Clear,210,2012-10-08 08:55:00
4:55 AM,34.7,29.5,81,30.16,10.0,SSW,6.9,-,N/A,,Clear,210,2012-10-08 09:55:00
5:55 AM,33.4,29.3,85,30.16,10.0,SSW,6.9,-,N/A,,Clear,200,2012-10-08 10:55:00
6:55 AM,33.6,29.5,85,30.16,10.0,SSW,8.1,-,N/A,,Clear,200,2012-10-08 11:55:00
7:55 AM,34.7,30.6,85,30.15,10.0,South,10.4,-,N/A,,Clear,170,2012-10-08 12:55:00
8:55 AM,40.1,31.1,70,30.15,10.0,South,13.8,-,N/A,,Clear,190,2012-10-08 13:55:00
9:55 AM,46.8,31.5,55,30.14,10.0,South,16.1,-,N/A,,Clear,190,2012-10-08 14:55:00
10:55 AM,52.2,32.7,48,30.14,10.0,South,11.5,-,N/A,,Clear,190,2012-10-08 15:55:00
11:55 AM,57.4,32.9,40,30.12,10.0,SSW,17.3,-,N/A,,Clear,200,2012-10-08 16:55:00
12:55 PM,61.3,32.9,34,30.09,10.0,South,19.6,24.2,N/A,,Clear,180,2012-10-08 17:55:00
1:55 PM,63.7,32.2,31,30.05,10.0,South,18.4,26.5,N/A,,Clear,190,2012-10-08 18:55:00
2:55 PM,66.0,32.4,29,30.01,10.0,South,18.4,26.5,N/A,,Clear,180,2012-10-08 19:55:00
3:55 PM,67.6,30.9,25,29.99,10.0,South,17.3,23.0,N/A,,Clear,180,2012-10-08 20:55:00
4:55 PM,66.7,29.8,25,29.97,10.0,South,17.3,26.5,N/A,,Clear,180,2012-10-08 21:55:00
5:55 PM,65.1,31.3,28,29.96,10.0,South,20.7,26.5,N/A,,Clear,170,2012-10-08 22:55:00
6:55 PM,61.0,32.7,35,29.97,10.0,South,17.3,-,N/A,,Clear,170,2012-10-08 23:55:00
7:55 PM,57.7,35.1,43,29.99,10.0,South,11.5,-,N/A,,Clear,170,2012-10-09 00:55:00
8:55 PM,55.4,34.7,46,30.00,10.0,South,13.8,-,N/A,,Clear,170,2012-10-09 01:55:00
9:55 PM,54.0,34.9,49,29.99,10.0,South,13.8,-,N/A,,Clear,170,2012-10-09 02:55:00
10:55 PM,52.3,34.7,51,29.99,10.0,South,12.7,-,N/A,,Clear,170,2012-10-09 03:55:00
11:55 PM,50.5,35.1,55,29.99,10.0,SSE,11.5,-,N/A,,Clear,160,2012-10-09 04:55:00